AirNav   Air Wisconsin pilot careers
 
 813 users online  

80VA Holly Springs Airport
Richmond, Virginia, USA

GOING TO RICHMOND?


FAA INFORMATION EFFECTIVE 28 FEBRUARY 2019

Location

FAA Identifier: 80VA
Lat/Long: 37-47-28.5180N / 077-49-28.9780W
37-47.475300N / 077-49.482967W
37.7912550 / -77.8247161
(estimated)
Elevation: 250 ft. / 76 m (estimated)
Variation: 09W (1990)
From city: 17 miles N of RICHMOND, VA
Time zone: UTC -5 (UTC -4 during Daylight Saving Time)
Zip code: 23024

Airport Operations

Airport use: Private use. Permission required prior to landing
Activation date: 02/1994
Control tower: no
ARTCC: WASHINGTON CENTER
FSS: LEESBURG FLIGHT SERVICE STATION
Attendance: SAT-SUN DAWN-DUSK
Wind indicator: yes
Segmented circle: no
Lights: FOR STROBE LIGHT & LIRL RY 06/24 CALL (804) 883-5314.
Beacon: FLASHING STROBE LIGHT.

Airport Communications

WX AWOS-3 at 7W4 (11 nm N): 120.775 (540-872-0303)
WX AWOS-3 at LKU (15 nm NW): 119.475 (540-967-1983)
WX ASOS at OFP (19 nm E): 119.025 (804-752-2902)

Nearby radio navigation aids

VOR radial/distance  VOR name  Freq  Var
FAKr007/15.8FLAT ROCK VORTAC113.3006W
GVEr137/20.5GORDONSVILLE VORTAC115.6006W
RICr315/29.6RICHMOND VOR/DME114.1009W
BRVr223/39.6BROOKE VORTAC114.5009W

 
NDB name  Hdg/Dist  Freq  Var  ID
SHANNON222/33.523710WEZF . --.. ..-.
FARMVILLE057/39.336709WFVX ..-. ...- -..-
NAILR185/40.035110WMSQ -- ... --.-

Airport Services

Fuel available: MOGAS

Runway Information

Runway 6/24

Dimensions: 2000 x 90 ft. / 610 x 27 m
Surface: turf
Runway edge lights: low intensity
RUNWAY 6  RUNWAY 24
Traffic pattern: leftleft

Airport Ownership and Management from official FAA records

Ownership: Privately-owned
Owner: JAMES DUNN SR
RT 1 BOX 2270
MONTPELIER, VA 23192
Phone 804-883-5314
Manager: JAMES DUNN SR
RT 1 BOX 2270
MONTPELIER, VA 23193
Phone 804-883-5314

Airport Operational Statistics

Aircraft based on the field: 7
Single engine airplanes: 7
    

Additional Remarks

FOR CD CTC POTOMAC APCH AT 866-640-4124.

Instrument Procedures

There are no published instrument procedures at 80VA.

Some nearby airports with instrument procedures:

7W4 - Lake Anna Airport (11 nm N)
KLKU - Louisa County Airport/Freeman Field (15 nm NW)
KOFP - Hanover County Municipal Airport (19 nm E)
KFCI - Richmond Executive Airport-Chesterfield County (27 nm SE)
KGVE - Gordonsville Municipal Airport (27 nm NW)
 
Loc | Ops | Rwys | IFR | FBO | Links
Com | Nav | Svcs | Stats | Notes
Area around 80VA (Holly Springs Airport)
 
Road maps at: MapQuest Bing Google
 
Aerial photo
No photo
 
Sectional chart

 
Airport distance calculator
Flying to Holly Springs Airport? Find the distance to fly.

From to 80VA

Sunrise and sunset
Times for 24-Mar-2019
 Local
(UTC-4)
 Zulu
(UTC)
Morning civil twilight06:4410:44
Sunrise07:1011:10
Sunset19:2623:26
Evening civil twilight19:5223:52

Current date and time
Zulu (UTC)  25-Mar-2019 02:44:56
Local (UTC-4)  24-Mar-2019 22:44:56
 
METAR
K7W4 
11nm N 
250235Z AUTO 20006KT 10SM CLR 16/M02 A3007 RMK AO1 T01601024
KLKU 
15nm NW 
250235Z AUTO 18004KT 10SM CLR 16/M01 A3011 RMK AO2 T01591008
KOFP 
19nm E 
250154Z AUTO 18007KT 10SM CLR 17/M02 A3011 RMK AO2 SLP194 T01721017
TAF
KRIC 
29nm SE 
241720Z 2418/2518 23010KT P6SM BKN250 FM250200 21006KT P6SM BKN120 FM251600 17004KT P6SM OVC050
KCHO 
36nm NW 
241720Z 2418/2518 20010KT P6SM FEW150 SCT250 FM250000 20005KT P6SM SCT150 BKN250 FM251700 04004KT P6SM OVC070
NOTAMs
Click for the latest NOTAMs
NOTAMs are issued by the DoD/FAA and will open in a separate window not controlled by AirNav.

 

 
 

Would you like to see your business listed on this page?

 If your business provides an interesting product or service to pilots, flight crews, aircraft, or users of the Holly Springs Airport, you should consider listing it here.  To start the listing process, click on the button below
 
Add a business
 

Other Pages about Holly Springs Airport

www.erols.com/...
 
Update a link
 
Copyright © AirNav, LLC. All rights reserved. Privacy Policy  Contact